UNS100 KLGB-KONT

Flight info

Callsign UNS100
Flight time 0h 29m
Altitude 19000
Route TOPMM5 OROSZ PMD ZIGGY8
Aircraft MD82/M-SDFGIRWY/C

Departure

Time 2026-04-29 18:18
Airport Long Beach International Airport (KLGB)

Arrival

Time 2026-04-29 18:47
Airport Ontario International Airport (KONT)
Time Latitude Longitude Altitude Speed Heading
2026-04-29 18:04 33.81781 -118.14657 41 ft 2 kts 90°
2026-04-29 18:04 33.81781 -118.14675 41 ft 2 kts 110°
2026-04-29 18:05 33.81789 -118.14690 41 ft 2 kts 137°
2026-04-29 18:05 33.81802 -118.14700 41 ft 2 kts 163°
2026-04-29 18:05 33.81811 -118.14702 41 ft 1 kts 180°
2026-04-29 18:05 33.81817 -118.14701 41 ft 0 kts 180°
2026-04-29 18:10 33.81801 -118.14702 41 ft 4 kts 180°
2026-04-29 18:10 33.81765 -118.14702 41 ft 7 kts 180°
2026-04-29 18:11 33.81693 -118.14703 41 ft 12 kts 181°
2026-04-29 18:11 33.81594 -118.14700 40 ft 16 kts 170°
2026-04-29 18:11 33.81501 -118.14616 38 ft 18 kts 138°
2026-04-29 18:11 33.81406 -118.14500 36 ft 20 kts 135°
2026-04-29 18:12 33.81294 -118.14367 35 ft 24 kts 134°
2026-04-29 18:12 33.81174 -118.14218 32 ft 26 kts 134°
2026-04-29 18:12 33.81042 -118.14057 31 ft 27 kts 135°
2026-04-29 18:12 33.80911 -118.13902 31 ft 24 kts 135°
2026-04-29 18:13 33.80870 -118.13855 31 ft 0 kts 137°
2026-04-29 18:13 33.80869 -118.13854 31 ft 1 kts 137°
2026-04-29 18:13 33.80838 -118.13818 31 ft 10 kts 136°
2026-04-29 18:13 33.80784 -118.13757 29 ft 5 kts 156°
2026-04-29 18:14 33.80766 -118.13757 29 ft 0 kts 196°
2026-04-29 18:15 33.80765 -118.13757 29 ft 0 kts 196°
2026-04-29 18:15 33.80737 -118.13776 30 ft 9 kts 224°
2026-04-29 18:16 33.80708 -118.13834 31 ft 3 kts 289°
2026-04-29 18:16 33.80719 -118.13856 31 ft 0 kts 314°
2026-04-29 18:17 33.80723 -118.13860 31 ft 9 kts 313°
2026-04-29 18:17 33.80917 -118.14098 31 ft 68 kts 314°
2026-04-29 18:17 33.81371 -118.14667 38 ft 118 kts 315°
2026-04-29 18:17 33.82044 -118.15472 98 ft 152 kts 314°
2026-04-29 18:18 33.82820 -118.16425 347 ft 168 kts 314°
2026-04-29 18:18 33.83584 -118.17367 626 ft 150 kts 313°
2026-04-29 18:18 33.84318 -118.18294 939 ft 149 kts 313°
2026-04-29 18:18 33.85009 -118.19183 1366 ft 144 kts 311°
2026-04-29 18:19 33.85701 -118.20097 1618 ft 153 kts 311°
2026-04-29 18:19 33.86436 -118.21086 1902 ft 167 kts 310°
2026-04-29 18:19 33.87243 -118.22199 2220 ft 188 kts 310°
2026-04-29 18:19 33.87900 -118.23595 2675 ft 202 kts 279°
2026-04-29 18:20 33.87676 -118.25349 2927 ft 232 kts 253°
2026-04-29 18:20 33.87401 -118.27366 3251 ft 260 kts 270°
2026-04-29 18:20 33.87475 -118.29614 3757 ft 270 kts 277°
2026-04-29 18:20 33.87726 -118.31821 4282 ft 269 kts 281°
2026-04-29 18:21 33.88072 -118.34063 4780 ft 272 kts 283°
2026-04-29 18:21 33.88462 -118.36277 5297 ft 272 kts 283°
2026-04-29 18:21 33.88878 -118.38514 5790 ft 275 kts 284°
2026-04-29 18:21 33.89304 -118.40739 6281 ft 277 kts 284°
2026-04-29 18:22 33.89752 -118.43009 6791 ft 277 kts 288°
2026-04-29 18:22 33.90766 -118.44910 7302 ft 275 kts 322°
2026-04-29 18:22 33.92429 -118.46045 7859 ft 278 kts 331°
2026-04-29 18:22 33.94157 -118.47177 8349 ft 281 kts 331°
2026-04-29 18:23 33.95853 -118.48295 8833 ft 281 kts 330°
2026-04-29 18:23 33.97566 -118.49428 9323 ft 282 kts 330°
2026-04-29 18:23 33.99334 -118.50520 9813 ft 285 kts 338°
2026-04-29 18:23 34.01309 -118.51455 10345 ft 288 kts 336°
2026-04-29 18:24 34.03200 -118.52365 10837 ft 290 kts 336°
2026-04-29 18:24 34.05117 -118.53289 11333 ft 294 kts 336°
2026-04-29 18:24 34.07020 -118.54207 11822 ft 303 kts 336°
2026-04-29 18:24 34.09022 -118.55173 12338 ft 312 kts 336°
2026-04-29 18:25 34.11087 -118.56042 12825 ft 322 kts 342°
2026-04-29 18:25 34.13275 -118.56821 13355 ft 329 kts 341°
2026-04-29 18:25 34.15532 -118.57631 13854 ft 336 kts 341°
2026-04-29 18:25 34.17876 -118.58472 14378 ft 343 kts 341°
2026-04-29 18:26 34.20301 -118.59341 14919 ft 349 kts 341°
2026-04-29 18:26 34.22803 -118.60241 15435 ft 351 kts 341°
2026-04-29 18:26 34.25223 -118.61112 15961 ft 354 kts 341°
2026-04-29 18:26 34.27611 -118.61971 16440 ft 355 kts 341°
2026-04-29 18:27 34.29984 -118.62826 16914 ft 358 kts 340°
2026-04-29 18:27 34.32449 -118.63715 17429 ft 361 kts 340°
2026-04-29 18:27 34.35053 -118.64655 17943 ft 363 kts 340°
2026-04-29 18:27 34.37658 -118.65596 18473 ft 366 kts 340°
2026-04-29 18:28 34.40317 -118.65934 18949 ft 377 kts
2026-04-29 18:28 34.42883 -118.64937 19006 ft 390 kts 27°
2026-04-29 18:28 34.44919 -118.62711 19024 ft 393 kts 53°
2026-04-29 18:28 34.46050 -118.59587 19047 ft 396 kts 75°
2026-04-29 18:29 34.46874 -118.56219 19032 ft 397 kts 71°
2026-04-29 18:29 34.47489 -118.54021 19008 ft 397 kts 69°
2026-04-29 18:29 34.48838 -118.49580 19001 ft 395 kts 68°
2026-04-29 18:29 34.49931 -118.46158 19004 ft 395 kts 67°
2026-04-29 18:30 34.51053 -118.42722 19027 ft 396 kts 67°
2026-04-29 18:30 34.52167 -118.39349 19040 ft 397 kts 67°
2026-04-29 18:30 34.53293 -118.35961 19028 ft 397 kts 66°
2026-04-29 18:30 34.54406 -118.32619 19027 ft 397 kts 67°
2026-04-29 18:31 34.55506 -118.29324 19030 ft 397 kts 67°
2026-04-29 18:31 34.56553 -118.26189 19047 ft 398 kts 67°
2026-04-29 18:31 34.57593 -118.23075 19050 ft 398 kts 67°
2026-04-29 18:31 34.58651 -118.19902 18773 ft 404 kts 67°
2026-04-29 18:32 34.59711 -118.16718 18260 ft 401 kts 67°
2026-04-29 18:32 34.61852 -118.10282 17070 ft 377 kts 67°
2026-04-29 18:32 34.62521 -118.07194 16516 ft 350 kts 90°
2026-04-29 18:33 34.61973 -118.04205 16090 ft 362 kts 118°
2026-04-29 18:33 34.60738 -118.01366 15625 ft 360 kts 120°
2026-04-29 18:33 34.59441 -117.98429 15095 ft 357 kts 120°
2026-04-29 18:33 34.58133 -117.95506 14588 ft 352 kts 120°
2026-04-29 18:34 34.56824 -117.92612 14051 ft 349 kts 120°
2026-04-29 18:34 34.55974 -117.90737 13701 ft 347 kts 120°
2026-04-29 18:34 34.54229 -117.86906 13009 ft 343 kts 120°
2026-04-29 18:34 34.52934 -117.84073 12503 ft 340 kts 120°
2026-04-29 18:35 34.51754 -117.81494 12012 ft 338 kts 120°
2026-04-29 18:35 34.50646 -117.79072 11551 ft 336 kts 120°
2026-04-29 18:35 34.49531 -117.76636 11093 ft 333 kts 119°
2026-04-29 18:35 34.48392 -117.74151 10595 ft 331 kts 119°
2026-04-29 18:36 34.47157 -117.71462 10065 ft 317 kts 119°
2026-04-29 18:36 34.45984 -117.68911 10004 ft 289 kts 119°
2026-04-29 18:36 34.44887 -117.66528 10034 ft 291 kts 119°
2026-04-29 18:36 34.43844 -117.64263 10042 ft 302 kts 119°
2026-04-29 18:37 34.42813 -117.62025 10020 ft 302 kts 119°
2026-04-29 18:37 34.41809 -117.59849 10022 ft 298 kts 119°
2026-04-29 18:37 34.40794 -117.57650 10027 ft 298 kts 120°
2026-04-29 18:37 34.39769 -117.55430 10025 ft 298 kts 119°
2026-04-29 18:38 34.38746 -117.53213 10024 ft 298 kts 120°
2026-04-29 18:38 34.37722 -117.51001 10018 ft 298 kts 120°
2026-04-29 18:38 34.36702 -117.48798 10018 ft 298 kts 119°
2026-04-29 18:38 34.35682 -117.46593 10028 ft 299 kts 120°
2026-04-29 18:39 34.34610 -117.44280 10033 ft 299 kts 120°
2026-04-29 18:39 34.33496 -117.41877 10028 ft 299 kts 120°
2026-04-29 18:39 34.32479 -117.39683 10023 ft 298 kts 120°
2026-04-29 18:39 34.31459 -117.37486 10034 ft 298 kts 120°
2026-04-29 18:40 34.30394 -117.35308 10025 ft 297 kts 129°
2026-04-29 18:40 34.28745 -117.33858 10068 ft 292 kts 163°
2026-04-29 18:40 34.26812 -117.33287 10039 ft 280 kts 167°
2026-04-29 18:40 34.24936 -117.32729 9710 ft 274 kts 167°
2026-04-29 18:41 34.19519 -117.31106 8272 ft 257 kts 166°
2026-04-29 18:41 34.17773 -117.30579 7819 ft 252 kts 166°
2026-04-29 18:42 34.16071 -117.30067 7343 ft 249 kts 165°
2026-04-29 18:42 34.14397 -117.29562 6901 ft 245 kts 165°
2026-04-29 18:42 34.12738 -117.29146 6427 ft 244 kts 181°
2026-04-29 18:42 34.11186 -117.29761 6044 ft 239 kts 220°
2026-04-29 18:43 34.09995 -117.31152 5619 ft 236 kts 225°
2026-04-29 18:43 34.08866 -117.32551 5269 ft 232 kts 225°
2026-04-29 18:43 34.07741 -117.33946 4935 ft 229 kts 225°
2026-04-29 18:43 34.06630 -117.35328 4642 ft 229 kts 225°
2026-04-29 18:44 34.05711 -117.36877 4360 ft 228 kts 255°
2026-04-29 18:44 34.05598 -117.38725 4099 ft 220 kts 268°
2026-04-29 18:44 34.05559 -117.40561 3754 ft 216 kts 269°
2026-04-29 18:44 34.05541 -117.42351 3281 ft 212 kts 269°
2026-04-29 18:45 34.05535 -117.44098 2839 ft 209 kts 270°
2026-04-29 18:45 34.05541 -117.45831 2396 ft 206 kts 270°
2026-04-29 18:45 34.05554 -117.47530 2070 ft 199 kts 270°
2026-04-29 18:45 34.05550 -117.49156 1870 ft 190 kts 269°
2026-04-29 18:46 34.05513 -117.50867 1740 ft 222 kts 268°
2026-04-29 18:46 34.05442 -117.52775 1718 ft 225 kts 269°
2026-04-29 18:46 34.05442 -117.54513 1797 ft 188 kts 271°
2026-04-29 18:46 34.05463 -117.55985 1524 ft 169 kts 271°
2026-04-29 18:47 34.05480 -117.57341 1175 ft 158 kts 272°
2026-04-29 18:47 34.05494 -117.58624 952 ft 141 kts 270°
2026-04-29 18:47 34.05497 -117.59654 930 ft 94 kts 270°
2026-04-29 18:47 34.05497 -117.60197 930 ft 44 kts 273°
2026-04-29 18:48 34.05535 -117.60461 935 ft 29 kts 289°
2026-04-29 18:48 34.05626 -117.60627 941 ft 18 kts 315°
2026-04-29 18:48 34.05703 -117.60723 944 ft 13 kts 314°
2026-04-29 18:48 34.05764 -117.60758 947 ft 9 kts 13°
2026-04-29 18:49 34.05801 -117.60712 948 ft 6 kts 82°
2026-04-29 18:49 34.05799 -117.60649 948 ft 8 kts 88°
2026-04-29 18:49 34.05800 -117.60564 946 ft 11 kts 90°
2026-04-29 18:49 34.05800 -117.60452 945 ft 14 kts 90°
2026-04-29 18:50 34.05800 -117.60330 945 ft 15 kts 90°
2026-04-29 18:50 34.05799 -117.60191 942 ft 18 kts 90°
2026-04-29 18:50 34.05801 -117.60054 942 ft 14 kts 86°
2026-04-29 18:50 34.05848 -117.59992 943 ft 9 kts
2026-04-29 18:51 34.05916 -117.59989 945 ft 9 kts 12°
2026-04-29 18:51 34.05962 -117.59971 946 ft 2 kts 22°
2026-04-29 18:51 34.05978 -117.59963 946 ft 2 kts 22°
2026-04-29 18:51 34.05980 -117.59963 946 ft 0 kts 22°